User: anonymous   Login
Location: Newark
(40.9833°N, 0.0333°W)
Time: 09:54:43
(UTC+00:00)
Language:

deb Explorer IX - Orbit

View from above orbital plane
View from above orbital plane
View from above satellite
View from above satellite

Ground track
Ground track

The orbit data is extracted from the following two-line orbital elements,

1 00085U 61004C   21137.91591742  .00000606  00000-0  14493-3 0  9992
2 00085  38.7736 113.1826 0387536 209.7784 148.0383 14.21675814978695
Epoch (UTC): 17 May 2021 21:58:55
Eccentricity: 0.0387536
inclination: 38.7736°
perigee height: 541 km
apogee height: 1098 km
right ascension of ascending node: 113.1826°
argument of perigee: 209.7784°
revolutions per day: 14.21675814
mean anomaly at epoch: 148.0383°
orbit number at epoch: 97869

The dashed part of the orbit path shows where the satellite is in the earth's shadow,  

DLR